Regional Weather Roundup
Issued by NWS Midland/Odessa, TX

Home | Current Version | Previous Version | Text Only | Print | Product List | Glossary On
Versions: 1 2 3 4 5 6 7 8 9 10 11 12 13 14 15 16 17 18 19 20 21 22 23 24 25 26 27 28 29 30 31 32 33 34 35 36 37 38 39 40 41 42 43 44 45 46 47 48 49 50
000
ASUS44 KMAF 280510
RWRMAF
MIDLAND AREA WEATHER ROUNDUP
NATIONAL WEATHER SERVICE MIDLAND TX
1100 PM CST TUE JAN 27 2015

...IN SOUTHWEST TEXAS AND SOUTHEAST NEW MEXICO...

CITY           SKY/WX    TMP DP  RH WIND       PRES   REMARKS
ALPINE         CLEAR     51  43  76 SW9       30.30S
ANDREWS        FAIR      55  34  45 SW7       30.17S
ARTESIA        CLEAR     48  41  76 W10       30.18R
BIG SPRING     CLEAR     54  37  53 SE6       30.17S
CARLSBAD       CLEAR     48  38  68 SW9       30.16R
DRYDEN           N/A     58  39  49 CALM      30.15S
FORT STOCKTON  CLEAR     54  41  61 S7        30.18S
GUAD PASS      CLEAR     54  39  57 SW9       30.27F
HOBBS          CLEAR     46  36  66 CALM      30.19S
MARFA          CLEAR     39  37  93 N3        30.28S
MIDLAND AIRPK  CLEAR     57  36  44 SW5       30.16S
MIDLAND INTL   CLEAR     53  37  54 S5        30.16S
ODESSA         CLEAR     55  35  47 SW5       30.17S
PECOS          CLEAR     49  41  72 S3        30.17R
PRESIDIO       FAIR      57  45  64 N12       30.19S
SEMINOLE       CLEAR     50  35  56 CALM      30.17S
SNYDER         CLEAR    N/A N/A N/A S8        30.15S
WINK           CLEAR     51  34  52 S3        30.15S
$$
...OTHER STATIONS IN TEXAS...

CITY           SKY/WX    TMP DP  RH WIND       PRES   REMARKS
ABILENE        CLEAR     53  39  59 S9        30.13S
AMARILLO       CLEAR     44  34  67 S10       30.10S WCI  39
AUSTIN         CLEAR     50  44  80 W3        30.15R
BROWNSVILLE      N/A     56  53  90 S5        30.18S
CORPUS CHRISTI CLEAR     53  47  79 S7        30.15S
DALLAS FTW     PTCLDY    58  39  49 S10       30.10S
DEL RIO        CLEAR     53  43  68 SW3       30.14R
EL PASO        PTCLDY    53  40  61 S3        30.20F
HOUSTON INT    PTCLDY    52  47  83 CALM      30.15R
LUBBOCK        CLEAR     53  33  46 SW12      30.13S
SAN ANGELO     CLEAR     49  38  65 SW5       30.14S
SAN ANTONIO    PTCLDY    53  41  63 NW6       30.15R
WACO           CLEAR     50  42  74 SW5       30.13S
WICHITA FALLS  NOT AVBL
$$
...OTHER LOCATIONS IN NEW MEXICO...

CITY           SKY/WX    TMP DP  RH WIND       PRES   REMARKS
ALAMAGORDO     CLEAR     48  36  61 E8        30.22S
ALBUQUERQUE    CLEAR     43  28  55 SE5       30.25S
CANNON AFB     CLEAR     49  33  54 W10       30.15F
CLOVIS         CLEAR     46  34  61 SW12      30.14F
HOLLOMAN AFB   PTCLDY    47  38  71 E5        30.20S
ROSWELL        CLEAR     41  36  82 W5        30.17S WCI  38
RUIDOSO        CLEAR     43  32  65 N3        30.31S
SANTA FE       CLEAR     40  30  67 N12       30.25F WCI  33
TRUTH OR CONSE CLEAR     46  35  65 NW8       30.22F
TUCUMCARI      CLEAR     50  39  66 SW16      30.09S
$$



USA.gov is the U.S. government's official web portal to all federal, state and local government web resources and services.